Wind_Speed
23 23 22 21 21 20 19 18 17 17 16 17 19 19 18 18 17 19 19 18 18 18 17 18 19 18 18 18 18 18 18 16 16 15 15 15 14 14 13 12 12 11
21 22 23 23 23 22 21 18 16 16 15 16 18 19 18 17 17 18 18 18 18 18 17 18 19 19 19 18 18 18 17 17 16 16 16 16 15 15 14 12 12 11
19 20 21 23 23 22 21 18 16 16 15 15 16 19 19 18 18 18 18 18 18 18 18 18 19 20 19 18 18 18 17 17 17 16 16 16 16 15 14 13 13 11
17 18 20 22 23 22 20 16 15 15 15 15 17 19 19 19 19 19 19 19 19 19 19 18 19 19 19 19 19 18 18 18 17 16 17 16 16 16 14 14 14 12
17 17 19 21 21 20 17 15 16 17 16 16 18 20 20 20 21 20 19 20 20 20 20 19 19 18 18 19 19 19 19 19 18 17 17 17 17 16 16 15 15 13
16 15 15 17 17 17 16 16 18 19 18 18 20 20 21 21 22 21 20 19 20 20 20 19 19 18 18 19 19 19 19 19 18 18 18 17 16 16 16 16 15 14
13 13 13 15 15 15 16 17 19 19 19 20 21 21 21 22 23 21 19 18 18 20 20 20 20 20 19 19 18 19 19 18 18 18 17 17 17 17 17 16 15 14
12 12 14 16 16 16 16 17 19 20 20 21 21 22 22 23 23 20 17 17 17 19 20 20 20 20 20 19 19 18 18 18 18 17 17 17 18 17 16 15 15 14
12 12 13 15 15 15 17 19 20 20 21 22 22 22 23 24 24 21 18 17 17 18 19 19 19 20 20 20 19 19 19 19 18 17 17 18 17 16 15 14 14 15
12 12 13 14 13 14 18 21 22 22 23 23 23 24 24 25 25 23 20 19 19 19 19 19 20 20 20 20 20 19 19 19 17 17 17 17 16 14 14 14 14 15
14 14 14 14 14 15 19 22 23 24 25 25 25 26 27 26 26 25 23 22 21 20 20 20 20 20 21 21 21 20 20 18 17 16 16 15 14 12 13 13 13 15
17 16 15 15 16 16 19 21 23 25 26 26 25 27 29 27 26 25 24 23 22 21 21 21 21 21 21 22 22 21 20 18 16 15 15 14 13 12 13 13 13 15
15 17 17 16 17 17 19 22 25 28 29 28 26 27 28 26 25 24 24 23 22 21 21 21 21 21 21 22 21 21 20 18 16 15 14 13 13 13 13 13 13 14
13 15 18 18 19 19 21 23 27 30 30 29 28 28 28 26 25 24 23 23 22 21 22 21 21 22 21 21 20 20 19 17 16 16 15 13 13 12 12 13 14 14
11 12 14 17 20 22 22 23 27 31 32 31 30 30 30 29 27 25 24 23 22 22 22 22 22 22 21 20 19 19 18 17 16 16 14 13 12 12 12 13 13 14
10 11 12 13 16 20 23 24 26 30 33 33 32 32 32 31 29 27 25 23 22 23 23 23 23 22 20 19 19 18 18 17 16 16 15 13 12 11 12 12 13 13
12 10 11 12 13 15 19 23 26 29 33 34 35 34 34 32 31 29 26 23 23 24 24 24 23 22 21 20 19 17 17 17 17 17 16 13 11 10 11 12 13 13
15 10 10 10 11 12 15 19 24 28 32 35 36 35 33 32 32 30 27 24 24 25 25 25 24 23 22 20 18 17 17 17 17 17 15 13 11 9 9 11 12 13
17 13 13 10 8 9 11 14 19 25 30 34 35 34 32 31 31 30 26 24 24 25 26 26 25 24 22 21 19 17 17 17 17 16 14 13 11 9 8 10 13 14
20 17 16 13 9 8 10 13 17 22 27 30 31 32 32 30 31 30 27 25 25 24 25 27 26 24 23 21 19 18 18 18 18 16 15 14 12 10 10 13 15 16
25 21 19 16 12 11 11 14 19 23 26 28 30 32 32 32 33 32 28 26 24 23 25 27 26 25 23 21 20 19 19 20 20 18 16 16 14 12 13 15 16 17
30 25 21 18 15 13 13 15 20 24 26 28 31 32 33 34 35 33 30 26 24 23 25 26 26 25 23 21 19 18 17 20 21 19 18 18 17 15 15 15 15 16
32 27 22 18 15 12 13 16 20 22 25 28 30 32 33 33 34 34 31 27 25 25 25 26 25 25 24 22 19 17 16 18 20 19 18 19 19 17 16 16 16 16
30 29 24 20 16 11 10 13 16 18 20 24 27 30 31 30 30 32 31 29 28 27 26 27 26 24 24 23 21 18 16 16 17 17 17 18 19 19 19 19 19 18
26 28 27 26 22 15 9 9 11 12 14 17 21 24 24 24 26 30 30 30 30 28 27 27 26 24 23 23 22 20 16 15 16 17 17 18 19 19 20 21 21 20
21 24 26 28 27 21 13 7 6 7 8 10 14 17 18 18 20 22 24 25 27 27 26 25 24 23 24 24 22 20 17 14 15 17 17 18 19 20 21 21 21 20
Wind_Direction
261 260 256 259 264 262 257 256 254 247 236 232 235 234 227 225 224 221 217 215 213 210 210 210 209 210 214 215 216 218 218 217 217 217 220 223 224 225 225 227 230 230
274 270 265 262 262 261 256 253 251 243 232 228 232 232 227 224 221 217 214 212 213 213 212 211 211 211 213 215 217 217 217 218 218 219 221 222 222 223 224 226 228 227
278 279 274 267 263 259 254 252 251 243 231 226 228 228 227 221 216 213 212 214 217 218 215 213 212 212 212 214 215 216 217 219 219 219 220 220 220 222 223 224 224 222
276 281 277 270 265 260 253 251 250 242 231 227 227 228 227 220 215 213 213 217 219 218 216 214 213 213 213 215 216 216 218 218 218 220 221 221 220 221 222 224 221 218
267 274 274 274 277 275 267 252 243 239 234 230 230 228 225 220 217 216 215 218 218 216 214 213 213 214 215 218 218 218 218 216 217 220 222 223 223 222 222 222 220 217
256 266 265 270 285 288 275 254 240 236 232 230 229 227 223 219 218 219 219 219 217 214 214 213 215 216 218 220 221 220 218 217 219 221 223 225 225 225 223 221 220 219
252 260 253 256 267 268 260 250 242 237 229 226 226 224 222 218 218 220 220 218 217 216 216 216 217 218 219 221 223 223 221 219 220 222 224 226 225 225 224 221 221 219
257 256 250 251 258 259 251 242 239 236 227 223 223 221 220 218 218 218 217 217 219 218 216 217 218 218 220 222 223 223 222 220 221 222 223 223 223 224 223 220 217 214
265 261 254 253 255 257 247 236 234 231 225 222 222 220 219 219 218 217 217 219 220 219 217 217 218 219 220 222 222 221 222 222 221 221 221 222 222 222 220 217 213 210
263 260 256 252 250 246 238 232 231 227 222 220 221 221 220 220 219 218 218 221 221 221 220 219 219 219 220 221 220 220 221 221 221 221 220 221 222 221 217 216 214 211
255 255 256 252 248 241 232 231 231 227 221 218 218 221 222 221 220 219 219 221 223 223 221 219 218 217 218 218 218 218 218 219 221 221 221 220 219 216 216 217 216 213
251 253 254 251 248 242 233 232 231 226 222 221 220 221 224 222 219 218 219 221 225 225 221 219 218 217 217 216 216 216 216 216 217 216 216 215 212 210 212 215 214 213
261 260 258 252 244 238 233 232 230 226 223 224 223 224 226 222 217 218 220 221 225 225 220 219 220 218 215 214 214 214 213 212 208 205 202 199 201 204 206 209 212 213
270 267 265 257 245 235 230 231 230 227 224 223 222 223 222 217 215 218 220 221 223 221 218 218 219 215 211 210 211 209 207 202 195 191 188 188 194 199 203 208 210 211
281 272 268 261 252 242 235 233 231 228 226 222 219 220 219 215 213 214 217 221 221 217 217 218 215 211 207 204 201 197 193 190 189 188 188 192 198 199 205 209 207 210
312 284 273 265 258 251 243 238 233 228 226 222 215 215 217 216 213 212 214 220 221 217 216 216 211 205 200 196 193 191 189 190 194 195 193 195 200 202 209 210 204 205
342 310 289 274 261 258 251 244 237 230 226 221 214 212 214 216 215 213 213 217 220 218 217 215 207 201 198 195 193 191 193 196 197 195 193 194 200 207 215 212 202 197
350 342 323 294 264 261 260 251 244 235 227 221 214 211 213 218 217 214 211 212 218 221 219 213 206 202 199 197 196 194 195 196 195 193 193 194 199 209 218 213 202 193
356 359 350 326 284 267 268 263 257 246 233 223 215 210 212 218 219 215 209 209 217 222 217 209 205 204 202 199 199 199 197 196 195 195 196 197 199 209 211 198 189 181
0 360 354 337 310 288 281 278 271 256 239 224 212 207 210 215 216 212 205 205 215 218 211 206 205 204 203 203 203 205 205 201 199 200 202 199 197 198 191 177 171 170
4 359 355 345 322 298 285 274 261 250 239 225 212 207 210 213 211 206 200 202 210 213 208 206 206 203 202 204 206 210 211 208 204 206 206 200 193 191 188 178 171 171
11 2 358 354 333 300 275 257 243 236 231 224 214 208 210 213 208 199 196 199 205 210 210 207 205 204 202 203 205 207 210 209 208 209 207 198 190 188 189 187 183 182
17 9 2 358 344 307 267 244 233 226 219 216 212 208 211 215 207 195 193 199 204 207 208 206 204 202 201 202 204 206 207 206 205 206 204 196 191 191 192 192 191 191
23 19 13 10 0 329 278 244 233 222 212 209 208 208 210 213 206 193 191 199 205 207 207 206 204 203 202 203 205 206 207 205 201 201 200 197 196 196 194 193 192 190
26 26 26 26 20 2 323 270 241 221 211 208 206 206 209 209 202 195 192 194 199 204 207 208 205 203 203 204 205 207 209 210 206 202 199 200 201 198 194 193 192 190
28 29 31 34 33 24 4 319 257 204 194 204 199 199 206 203 193 190 186 182 186 195 203 207 206 202 201 202 205 208 210 213 212 205 201 200 198 195 192 189 187 186
Height
1512 1512 1512 1512 1512 1512 1512 1513 1515 1515 1516 1518 1520 1521 1522 1523 1524 1525 1526 1527 1528 1529 1531 1533 1534 1536 1538 1539 1541 1542 1544 1545 1546 1548 1549 1550 1552 1552 1553 1554 1555 1556
1512 1512 1511 1511 1510 1510 1510 1511 1512 1514 1515 1516 1518 1519 1520 1522 1523 1524 1525 1526 1527 1529 1530 1532 1533 1535 1537 1539 1540 1541 1542 1544 1545 1547 1548 1549 1550 1551 1552 1553 1554 1555
1511 1510 1509 1509 1509 1508 1508 1509 1510 1512 1514 1515 1516 1518 1519 1521 1522 1523 1524 1525 1526 1528 1529 1531 1532 1534 1536 1538 1539 1540 1541 1543 1544 1546 1547 1548 1549 1550 1551 1552 1552 1553
1509 1509 1507 1506 1506 1506 1507 1508 1510 1511 1512 1513 1515 1517 1519 1520 1521 1522 1523 1524 1525 1527 1528 1530 1531 1533 1535 1536 1538 1539 1541 1542 1543 1544 1545 1546 1547 1548 1549 1550 1551 1552
1507 1507 1505 1504 1505 1506 1507 1509 1509 1510 1511 1513 1514 1516 1518 1519 1520 1520 1522 1523 1524 1526 1527 1529 1530 1532 1534 1535 1537 1538 1540 1541 1542 1543 1544 1545 1546 1547 1548 1549 1550 1550
1505 1505 1504 1504 1506 1507 1507 1508 1508 1508 1509 1511 1513 1514 1516 1517 1519 1520 1521 1522 1523 1525 1526 1528 1529 1531 1533 1535 1536 1538 1539 1540 1541 1542 1543 1544 1545 1546 1546 1547 1548 1549
1504 1504 1503 1504 1505 1505 1505 1506 1507 1508 1508 1510 1512 1513 1515 1516 1517 1519 1520 1522 1523 1524 1525 1527 1528 1530 1532 1534 1535 1537 1538 1539 1540 1541 1542 1543 1543 1544 1545 1546 1547 1548
1502 1502 1502 1503 1504 1504 1504 1505 1507 1508 1509 1510 1511 1512 1513 1514 1516 1518 1519 1521 1522 1523 1524 1525 1527 1529 1531 1533 1534 1536 1537 1538 1539 1540 1540 1541 1542 1543 1544 1545 1546 1546
1499 1500 1500 1501 1503 1504 1504 1504 1505 1506 1508 1509 1510 1510 1512 1513 1515 1517 1518 1520 1521 1522 1523 1524 1526 1527 1529 1531 1533 1534 1536 1537 1538 1538 1539 1540 1541 1542 1543 1544 1544 1545
1497 1498 1498 1500 1502 1503 1502 1503 1503 1504 1505 1506 1508 1509 1510 1512 1514 1515 1517 1518 1520 1521 1521 1522 1524 1526 1528 1530 1532 1533 1534 1535 1536 1537 1538 1539 1540 1541 1542 1542 1543 1544
1495 1495 1496 1498 1499 1500 1500 1501 1502 1502 1503 1503 1505 1507 1508 1510 1512 1513 1515 1517 1518 1519 1520 1521 1522 1525 1526 1528 1530 1531 1533 1534 1535 1536 1537 1538 1539 1540 1540 1541 1542 1543
1494 1493 1494 1495 1497 1498 1499 1499 1500 1501 1501 1502 1503 1505 1506 1507 1509 1512 1513 1515 1516 1517 1519 1520 1521 1523 1525 1526 1528 1529 1531 1532 1534 1535 1536 1537 1538 1538 1539 1540 1541 1542
1491 1491 1492 1493 1494 1495 1496 1497 1497 1498 1499 1501 1502 1503 1505 1506 1508 1510 1512 1513 1515 1516 1517 1519 1520 1522 1523 1525 1526 1528 1529 1531 1532 1534 1535 1536 1536 1537 1538 1539 1540 1541
1489 1489 1490 1491 1491 1492 1492 1493 1495 1496 1497 1499 1500 1501 1503 1504 1506 1508 1511 1512 1513 1515 1516 1517 1519 1520 1522 1524 1525 1526 1528 1530 1531 1533 1534 1534 1535 1536 1537 1538 1539 1540
1488 1488 1488 1488 1488 1488 1489 1490 1491 1492 1494 1496 1497 1499 1500 1502 1504 1506 1508 1510 1512 1513 1514 1515 1517 1519 1521 1523 1524 1525 1527 1529 1531 1532 1533 1534 1534 1535 1536 1536 1537 1538
1486 1486 1486 1486 1486 1486 1487 1487 1487 1488 1490 1491 1494 1496 1498 1501 1503 1504 1506 1508 1510 1512 1513 1514 1516 1518 1521 1522 1523 1525 1526 1528 1530 1531 1532 1533 1533 1534 1535 1535 1536 1537
1485 1484 1484 1484 1484 1484 1484 1484 1484 1485 1486 1488 1490 1492 1495 1498 1501 1502 1504 1506 1509 1510 1512 1513 1515 1517 1520 1521 1523 1524 1526 1527 1528 1529 1531 1532 1532 1533 1534 1534 1535 1536
1485 1483 1482 1482 1482 1482 1482 1482 1482 1482 1483 1485 1487 1489 1493 1496 1499 1501 1503 1505 1507 1509 1510 1512 1514 1517 1519 1521 1522 1523 1525 1526 1527 1528 1529 1531 1531 1532 1533 1534 1534 1535
1484 1483 1482 1481 1480 1480 1480 1480 1480 1480 1481 1483 1485 1488 1491 1494 1497 1499 1501 1503 1505 1507 1509 1511 1513 1516 1518 1520 1521 1523 1524 1525 1526 1527 1528 1530 1531 1531 1532 1533 1534 1535
1484 1483 1481 1480 1479 1479 1479 1479 1479 1478 1478 1481 1484 1486 1489 1491 1494 1497 1499 1501 1504 1506 1508 1510 1513 1515 1517 1519 1520 1521 1522 1524 1525 1526 1527 1528 1530 1531 1532 1533 1534 1535
1484 1483 1481 1480 1479 1478 1478 1478 1478 1477 1478 1479 1482 1485 1487 1489 1491 1494 1497 1499 1502 1505 1507 1509 1512 1514 1516 1517 1519 1520 1521 1522 1524 1525 1526 1527 1529 1530 1532 1533 1534 1535
1485 1483 1481 1480 1479 1478 1477 1477 1477 1477 1477 1478 1480 1483 1485 1487 1489 1492 1495 1498 1501 1504 1506 1509 1511 1513 1515 1516 1517 1518 1519 1521 1522 1524 1525 1526 1528 1530 1531 1533 1534 1535
1487 1485 1482 1481 1480 1479 1477 1477 1477 1476 1477 1477 1479 1482 1484 1485 1488 1491 1493 1497 1500 1503 1506 1508 1510 1512 1513 1514 1516 1517 1518 1519 1521 1522 1524 1526 1527 1529 1531 1532 1534 1535
1490 1487 1485 1482 1481 1480 1479 1478 1477 1477 1477 1477 1479 1481 1483 1484 1487 1489 1491 1495 1499 1502 1504 1507 1509 1511 1512 1513 1515 1516 1517 1519 1520 1521 1523 1525 1526 1528 1530 1531 1533 1534
1493 1491 1488 1485 1483 1482 1481 1480 1479 1479 1479 1479 1480 1482 1483 1485 1487 1489 1491 1493 1497 1501 1504 1506 1507 1510 1511 1512 1514 1516 1517 1518 1519 1521 1522 1524 1526 1527 1529 1530 1532 1533
1496 1494 1491 1489 1487 1485 1484 1483 1482 1481 1481 1482 1483 1484 1486 1488 1489 1491 1493 1494 1496 1500 1503 1505 1506 1509 1510 1512 1513 1515 1516 1517 1519 1520 1522 1523 1525 1526 1528 1529 1531 1532